STARLINK-4142, 53255

Orbit data source: Space-Track

STARLINK-4142, 53255 is a payload satellite owned by SpaceX/Seattle (US) in LEO that was launched on Sun, 24 Jul 2022 UTC via an FALCON 9 launch vehicle from the Air Force Eastern Test Range (AFETR). Payload-class satellites include a variety of spacecraft equipped with specific instruments for various scientific and technological missions. These include communications satellites like Starlink; space stations such as the ISS; scientific satellites like the Hubble; Earth observation satellites from companies like Planet Labs, Umbra, and HawkEye 360; GPS; miniature CubeSats for education and research; and military/defense satellites.

Loading next visibility...
Identifier
53255, 2022-086P
Orbit
LEO
Country
Flag of USUS
Related business
Manufacturer
SpaceX/Seattle
Mission
Operational Commercial Communications
Bus & Motor
STARLINK, Unknown motor
Mass
297 kg wet, ~275 kg dry
Launch date (UTC)
2022-07-24 (4 years ago)
Launch vehicle
FALCON 9
Launch site
Air Force Eastern Test Range (AFETR)
Object type
Payload
Rocket body
Debris
Shape & HBR
Box + 1 Pan, 10.1 m
Radar Cross Section
13.562 m², Large (>1 m²)

Expand to show TLE details & history
Last TLE update: 2 days ago

TLE from 2 days ago
0 STARLINK-4142
1 53255U 22086P   26171.16461305  .00001428  00000-0  10782-3 0  9997
2 53255  53.1597  93.9804 0001371  94.0534 266.0614 15.08838833216531
Epoch: 2026-06-20T03:57Z
TLE epoch observation values (Epoch: 2026-06-20T03:57:02.567Z)
Latitude
-0.00004°
Longitude
126.33652°
Altitude
540.704 km
Speed
7.593 km/s
True Right ascension
06h 15m 55s
True Declination
0° 00' 00"
Sunlit
Object was in daylight at epoch
Visualization orbit readout
Latitude
Unknown
Longitude
Unknown
Altitude
Unknown
Speed
Unknown
Apparent Right ascension
Unknown
Apparent Declination
Unknown
Sunlit
N/A
Visualization observer readout
Local Sidereal Time
21:24:47
Azimuth
Unknown
Elevation
Unknown
Doppler factor
Unknown
Orbital elements
Apogee altitude
540.95 km
Perigee altitude
539.053 km
Semi-major axis
6,918.138 km
Eccentricity
0.00014
Inclination
53.1597°
RAAN
93.9804°
Arg. of periapsis
94.0534°
True anomaly
266.04573°
Mean anomaly
266.0614°
Eccentric anomaly
266.05356°
Mean motion
3.77189 °/min
Orbital period
95.44 mins
BSTAR
0.00010782
Loading maneuver chart data...
Computing Atmospheric mass density...
Loading historical data...
Loading historical data...
Loading historical data...
Loading historical data...
Loading historical data...
Loading historical data...
Loading historical data...

Documentation

Showing up to 5 results
|